Current weather by "City, St" or "zip code"  
 

Current Conditions: HOUGHTON LAKE

Clear


48.9 F

Last Updated on May 26 2024, 03:53 AM EDT
Humidity: 100%
Wind Speed: 4.7 mph
Barometer 29.94 in
Dewpoint: 48.9 F
Visibility: 10.00 mi
Precip: --
Heat Index: NA
Wind Chill: 47.1 F
Current conditions at:

HOUGHTON LAKE (KHTL)

Lat: 44.37 Lon: 84.68

active severe weather and emergency alerts image image weather storm and storm spotter reports image weather observation monitoring service image
Active
Alerts
Storm Reports Obs
Monitoring

Sign-up For Email & Text Message Weather Alert Notification Services



Advertise Here

Observation History for HOUGHTON LAKE


Time Wind
(mph)
Vis
(mi)
Weather Precip (in) Temperature (F) Relative
Humidity
Wind
Chill
(F)
Heat
Index
(F)
Pressure
Air Dwpt altimeter
(in)
sea level
(mb)
Rmks
03:53 AM EDT 4.7 10.00 Clear -- 48.9 48.9 100% 47.1 NA 29.94 1013.6
02:53 AM EDT E 3.4 10.00 Clear -- 48.0 46.9 96% 47.1 NA 29.92 1013.2
01:53 AM EDT 0.0 10.00 Clear -- 48.0 46.0 93% NA NA 29.92 1013.2
12:53 AM EDT 4.7 10.00 Clear -- 48.0 46.0 93% 46.0 NA 29.92 1013.2
11:53 PM EDT 0.0 10.00 Clear -- 51.1 48.9 92% NA NA 29.92 1013.2
10:53 PM EDT 0.0 10.00 Clear -- 53.1 46.0 77% NA NA 29.92 1013.2
09:53 PM EDT 0.0 10.00 Clear -- 59.0 43.0 55% NA NA 29.90 1012.5
08:53 PM EDT 5.8 10.00 Clear -- 64.9 43.0 45% NA NA 29.88 1011.9
07:53 PM EDT 6.9 10.00 Clear -- 70.0 41.0 35% NA NA 29.87 1011.5
06:53 PM EDT W 10.3 10.00 Clear -- 71.1 39.0 31% NA 69.3 29.86 1011.2
05:53 PM EDT W 9.2 10.00 Clear -- 72.0 37.9 29% NA 70.2 29.84 1010.5
04:53 PM EDT W 10.3 10.00 Clear -- 72.0 37.9 29% NA 70.2 29.84 1010.5
03:53 PM EDT W 10.3 10.00 Clear -- 71.1 41.0 34% NA 69.4 29.84 1010.5
02:53 PM EDT W 13.9 10.00 Clear -- 70.0 44.1 39% NA NA 29.83 1010.2
01:53 PM EDT W 12.8 10.00 Clear -- 69.1 52.0 54% NA NA 29.82 1009.8
12:53 PM EDT W 12.8 10.00 Clear -- 64.9 54.0 68% NA NA 29.81 1009.5
11:53 AM EDT W 12.8 10.00 Mostly Cloudy -- 63.0 55.9 78% NA NA 29.79 1008.8
11:29 AM EDT W 10.3 10.00 NULL -- 63.0 57.0 81% NA NA 29.79 1008.8
10:53 AM EDT W 11.4 10.00 Cloudy -- 61.0 59.0 93% NA NA 29.78 1008.5
09:53 AM EDT W 11.4 10.00 Cloudy -- 61.0 59.0 93% NA NA 29.77 1008.1
09:16 AM EDT 8.1 10.00 Cloudy -- 61.0 57.9 90% NA NA 29.76 1007.8
08:53 AM EDT 5.8 10.00 Cloudy Trace 59.0 57.0 93% NA NA 29.76 1007.8
07:53 AM EDT 4.7 10.00 Cloudy 00.01 57.0 55.0 93% NA NA 29.76 1007.8
06:53 AM EDT S 3.4 10.00 Light Rain 00.05 55.9 53.1 90% NA NA 29.74 1007.1

Regional Weather Observation


HOUGHTON LAKE (KHTL)

Clear
48.9 F

BELLAIRE (KACB)

Clear
49.3 F

CADILLAC/WEXFORD (KCAD)

Clear
48.2 F

WEST BRANCH (KY31)

Clear
47.3 F

TRAVERSE CIT (KTVC)

NULL
55.9 F

GAYLORD (KGLR)

Clear
53.1 F

Advertise Here


Advertise Here